Weather past 2 weeks in Bantam, Cocos Islands

Now
77 °F

Overcast.


Feels Like: 78 °F
Forecast: 80 / 84 °F
Wind: 13 mph from Southeast

Location: Cocos Island Airport

Current Time: Dec 23, 2014 at 5:23:38 AM

Latest Report: Dec 23, 2014 at 4:30 AM


Visibility: N/A

Pressure: 29.74 "Hg

Humidity: 89%

Dew point: 73 °F

Location of BantamLocation

Historic Weather in Bantam — Graph

°F

Bantam temperature yesterday

Maximum temperature yesterday: 84 °F (at 10:30 AM)
Minimum temperature yesterday: 79 °F (at 12:00 AM)
Average temperature yesterday: 81 °F

Past Weeks' High & Low Weather Summary

 TemperatureHumidityPressure
High86 °F (Dec 8, 11:30 AM)94% (Dec 18, 2:30 AM)29.92 "Hg (Dec 18, 2:30 AM)
Low77 °F (Dec 12, 6:00 AM)58% (Dec 14, 11:30 AM)29.71 "Hg (Dec 22, 3:00 PM)
Average81 °F77%29.84 "Hg
* Reported Dec 8 3:30 AM — Dec 23 4:00 AM, Bantam, Weather by CustomWeather, © 2014

Note: Actual official high and low records may vary slightly from our data, if they occured in-between our weather recording intervals... More about our weather records

Advertising

Bantam weather history for previous 24 hours

 ConditionsComfort  
Time TempWeatherWind HumidityBarometerVisibility
4:00 AM
Dec 23
79 °FPassing clouds.15 mph84%29.74 "HgN/A
3:30 AM79 °FPartly cloudy.16 mph89%29.74 "HgN/A
3:00 AM79 °FMostly cloudy.14 mph84%29.74 "HgN/A
2:30 AM79 °FOvercast.14 mph84%29.74 "HgN/A
2:00 AM79 °FOvercast.14 mph84%29.77 "HgN/A
1:30 AM79 °FPartly cloudy.14 mph89%29.77 "HgN/A
1:00 AM79 °FOvercast.15 mph84%29.77 "HgN/A
12:30 AM79 °FPassing clouds.13 mph89%29.77 "HgN/A
12:00 AM79 °FOvercast.16 mph84%29.80 "HgN/A
11:30 PM
Dec 22
79 °FPartly cloudy.13 mph84%29.80 "HgN/A
11:00 PM79 °FMostly cloudy.15 mph84%29.80 "HgN/A
10:30 PM79 °FMostly cloudy.14 mph84%29.80 "HgN/A
10:00 PM79 °FPartly cloudy.16 mph84%29.80 "HgN/A
9:30 PM79 °FPassing clouds.15 mph84%29.80 "HgN/A
9:00 PM79 °FWarm.16 mph84%29.80 "HgN/A
8:30 PM81 °FPassing clouds.17 mph79%29.77 "HgN/A
8:00 PM81 °FPassing clouds.17 mph79%29.77 "HgN/A
7:30 PM81 °FPassing clouds.15 mph79%29.77 "HgN/A
7:00 PM81 °FScattered clouds.18 mph79%29.74 "HgN/A
6:30 PM81 °FBroken clouds.16 mph79%29.74 "HgN/A
6:00 PM79 °FCloudy.17 mph84%29.74 "HgN/A
5:30 PM79 °FScattered clouds.17 mph89%29.71 "HgN/A
5:00 PM81 °FBroken clouds.15 mph84%29.71 "HgN/A
4:30 PM82 °FScattered showers. Broken clouds.16 mph74%29.71 "HgN/A
4:00 PM82 °FPartly sunny.20 mph74%29.71 "HgN/A
3:30 PM82 °FPartly sunny.18 mph79%29.71 "HgN/A
3:00 PM84 °FScattered clouds.18 mph70%29.71 "HgN/A
2:30 PM84 °FScattered clouds.20 mph74%29.74 "HgN/A
2:00 PM84 °FScattered clouds.18 mph70%29.74 "HgN/A
1:30 PM84 °FScattered clouds.17 mph70%29.74 "HgN/A
1:00 PM84 °FPassing clouds.18 mph74%29.77 "HgN/A
12:30 PM84 °FPassing clouds.17 mph70%29.77 "HgN/A
11:30 AM84 °FPartly sunny.17 mph74%29.80 "HgN/A
11:00 AM84 °FPartly sunny.18 mph74%29.80 "HgN/A
10:30 AM84 °FBroken clouds.17 mph70%29.80 "HgN/A
10:00 AM82 °FBroken clouds.16 mph74%29.80 "HgN/A
9:30 AM82 °FScattered showers. Broken clouds.17 mph74%29.80 "HgN/A
9:00 AM81 °FScattered showers. Broken clouds.17 mph79%29.80 "HgN/A
8:30 AM79 °FSprinkles. Broken clouds.16 mph89%29.80 "HgN/A
8:00 AM81 °FSprinkles. Broken clouds.16 mph79%29.80 "HgN/A
7:30 AM81 °FScattered showers. Broken clouds.15 mph79%29.77 "HgN/A
6:30 AM81 °FPassing clouds.15 mph79%29.77 "HgN/A
6:00 AM79 °FPassing clouds.15 mph84%29.77 "HgN/A
5:30 AM79 °FPassing clouds.15 mph84%29.74 "HgN/A
5:00 AM79 °FPassing clouds.15 mph84%29.74 "HgN/A
Weather by CustomWeather, © 2014

See weather overviewHow to use our weather pages